F8BJE-13 Weather Reports


Display with metric or nautical units.
time (UTC)temp
F
wind
direction
speed
MPH
gust
MPH
rain 1hr
in
rain 24hr
in
rain mn
in
humidity
%
barometer
mb
20260505022736 51 11 3.0 3.0 0.04 0.23 0.10 96 1010.9
20260505015736 51 332 0.0 3.0 0.04 0.21 0.08 95 1010.8
20260505012736 51 312 0.0 4.0 0.04 0.18 0.05 94 1011.2
20260505005736 51 7 0.0 3.0 0.03 0.16 0.03 92 1011.3
20260505002735 51 26 1.0 3.0 0.01 0.14 0.01 90 1011.6
20260504235736 52 318 0.0 3.0 0.00 0.12 0.00 88 1011.7
20260504232735 51 283 0.0 1.0 0.00 0.12 0.00 88 1011.7
20260504225735 51 338 0.0 1.0 0.00 0.12 0.00 88 1011.5
20260504222736 50 325 0.0 2.0 0.00 0.12 0.00 87 1011.6
20260504215735 50 0 0.0 0.0 0.00 0.12 0.12 84 1012.0
20260504212736 51 0 0.0 0.0 0.00 0.12 0.12 83 1012.0
20260504205736 52 334 0.0 0.0 0.00 0.12 0.12 83 1012.4
20260504202735 52 199 0.0 1.0 0.00 0.12 0.12 82 1012.4
20260504195735 53 145 0.0 0.0 0.00 0.12 0.12 81 1012.4
20260504192736 54 287 0.0 1.0 0.00 0.12 0.12 80 1012.4
20260504185735 55 55 0.0 5.0 0.00 0.12 0.12 77 1012.5
20260504182736 56 189 0.0 2.0 0.00 0.12 0.12 75 1012.4
20260504175736 57 325 1.0 5.0 0.00 0.12 0.12 73 1012.4
20260504172736 58 296 1.0 7.0 0.00 0.12 0.12 73 1012.2
20260504045737 53 181 0.0 0.0 0.00 0.01 0.01 73 1014.2
20260504042737 52 311 0.0 3.0 0.00 0.01 0.01 74 1014.2
20260504035736 52 340 0.0 1.0 0.01 0.01 0.01 74 1013.7
20260504032737 51 138 0.0 1.0 0.01 0.01 0.01 73 1014.1
20260504025735 52 0 0.0 0.0 0.00 0.00 0.00 72 1014.3